No particular awareness of the weather is required.    There are no Weather-warnings


Meteo18 Weather Cam more information Meteo18 Weather Cam


Thunder radar more information blitzortung!


Rain radar more information rain snow radar


Visit our other weather sites:

Template documentation
and downloads

And another site



Weather Underground History page Text

Daily Summary for November 8, 2016 Units:  Metric    English   Both
« Previous Day
Next Day »
Daily Weekly Monthly Yearly Custom
  High: Low: Average:
Temperature: 6.6 °C 2.6 °C 3.5 °C
Dew Point: 3.6 °C 1.7 °C 2.4 °C
Humidity: 97 % 78 % 93 %
Wind Speed: 17.7 km/h 0.0 km/h 4.3 km/h
Wind Gust: 33.8 km/h - -
Wind:- - West
Pressure: 1014.4 hPa 1010.7 hPa -
Precipitation: 2.0 mm    
Historical Graphs
 
 
Tabular Data for November 8, 2016
Time Temperature Dew Point Pressure Wind Wind Speed Wind Gust Humidity Rainfall Rate (Hourly)
00:02 2.7 °C 2.3 °C 1010.7 hPa WNW 8.0 km/h 16.1 km/h 97 % 0.0 mm
00:07 2.7 °C 2.3 °C 1010.7 hPa NW 8.0 km/h 20.9 km/h 97 % 0.0 mm
00:12 2.8 °C 2.4 °C 1010.7 hPa WNW 4.8 km/h 20.9 km/h 97 % 0.0 mm
00:17 2.8 °C 2.4 °C 1010.7 hPa WNW 9.7 km/h 20.9 km/h 97 % 0.0 mm
00:22 2.8 °C 2.4 °C 1011.1 hPa NW 9.7 km/h 20.9 km/h 97 % 0.0 mm
00:32 2.8 °C 2.4 °C 1011.1 hPa WNW 4.8 km/h 20.9 km/h 97 % 0.0 mm
00:37 2.8 °C 2.4 °C 1011.1 hPa WNW 6.4 km/h 17.7 km/h 97 % 0.0 mm
00:42 2.8 °C 2.4 °C 1011.1 hPa NNE 6.4 km/h 17.7 km/h 97 % 0.0 mm
00:47 2.8 °C 2.4 °C 1011.1 hPa NNW 11.3 km/h 17.7 km/h 97 % 0.0 mm
00:52 2.8 °C 2.4 °C 1011.1 hPa NW 6.4 km/h 17.7 km/h 97 % 0.0 mm
00:57 2.8 °C 2.4 °C 1011.1 hPa NW 9.7 km/h 17.7 km/h 97 % 0.0 mm
01:02 2.9 °C 2.5 °C 1011.1 hPa NNW 8.0 km/h 17.7 km/h 97 % 0.0 mm
01:07 2.9 °C 2.5 °C 1011.1 hPa WNW 4.8 km/h 14.5 km/h 97 % 0.0 mm
01:12 2.9 °C 2.5 °C 1011.1 hPa NW 6.4 km/h 16.1 km/h 97 % 0.0 mm
01:17 2.9 °C 2.5 °C 1011.1 hPa NW 4.8 km/h 17.7 km/h 97 % 0.0 mm
01:22 2.9 °C 2.5 °C 1011.1 hPa NW 6.4 km/h 17.7 km/h 97 % 0.0 mm
01:27 2.9 °C 2.5 °C 1011.1 hPa NW 8.0 km/h 17.7 km/h 97 % 0.0 mm
01:32 2.9 °C 2.5 °C 1011.1 hPa NW 3.2 km/h 17.7 km/h 97 % 0.0 mm
01:37 2.9 °C 2.5 °C 1011.1 hPa WNW 1.6 km/h 17.7 km/h 97 % 0.0 mm
01:42 2.9 °C 2.5 °C 1011.1 hPa West 12.9 km/h 17.7 km/h 97 % 0.0 mm
01:47 2.9 °C 2.5 °C 1011.1 hPa NW 12.9 km/h 19.3 km/h 97 % 0.0 mm
01:52 2.9 °C 2.5 °C 1011.4 hPa WNW 4.8 km/h 19.3 km/h 97 % 0.0 mm
01:57 2.9 °C 2.5 °C 1011.4 hPa NW 6.4 km/h 19.3 km/h 97 % 0.0 mm
02:02 2.9 °C 2.5 °C 1011.4 hPa WNW 14.5 km/h 19.3 km/h 97 % 0.3 mm
02:07 2.9 °C 2.5 °C 1011.4 hPa WNW 3.2 km/h 16.1 km/h 97 % 0.3 mm
02:12 2.8 °C 2.4 °C 1011.4 hPa NW 9.7 km/h 17.7 km/h 97 % 0.3 mm
02:17 2.9 °C 2.5 °C 1011.4 hPa WNW 3.2 km/h 17.7 km/h 97 % 0.3 mm
02:22 2.8 °C 2.4 °C 1011.4 hPa NW 4.8 km/h 17.7 km/h 97 % 0.3 mm
02:27 2.8 °C 2.4 °C 1011.4 hPa WNW 8.0 km/h 16.1 km/h 97 % 0.3 mm
02:32 2.8 °C 2.2 °C 1011.4 hPa WNW 11.3 km/h 14.5 km/h 96 % 0.3 mm
02:42 2.8 °C 2.2 °C 1011.7 hPa WNW 6.4 km/h 12.9 km/h 96 % 0.3 mm
02:47 2.8 °C 2.2 °C 1011.7 hPa NNW 11.3 km/h 12.9 km/h 96 % 0.3 mm
02:52 2.8 °C 2.2 °C 1011.7 hPa WNW 3.2 km/h 12.9 km/h 96 % 0.3 mm
02:57 2.8 °C 2.2 °C 1011.7 hPa NW 4.8 km/h 16.1 km/h 96 % 0.3 mm
03:02 2.8 °C 2.2 °C 1011.4 hPa WNW 14.5 km/h 19.3 km/h 96 % 0.0 mm
03:07 2.8 °C 2.2 °C 1011.4 hPa NW 4.8 km/h 19.3 km/h 96 % 0.0 mm
03:12 2.8 °C 2.1 °C 1011.4 hPa WNW 4.8 km/h 17.7 km/h 95 % 0.0 mm
03:22 2.8 °C 2.1 °C 1011.4 hPa WNW 14.5 km/h 17.7 km/h 95 % 0.0 mm
03:27 2.7 °C 2.0 °C 1011.4 hPa WNW 6.4 km/h 17.7 km/h 95 % 0.0 mm
03:32 2.7 °C 2.0 °C 1011.4 hPa NW 4.8 km/h 17.7 km/h 95 % 0.0 mm
03:37 2.7 °C 2.0 °C 1011.4 hPa WNW 8.0 km/h 17.7 km/h 95 % 0.0 mm
03:42 2.8 °C 2.1 °C 1011.4 hPa NW 12.9 km/h 17.7 km/h 95 % 0.0 mm
03:47 2.8 °C 2.1 °C 1011.4 hPa WNW 14.5 km/h 17.7 km/h 95 % 0.0 mm
03:52 2.8 °C 2.1 °C 1011.4 hPa West 3.2 km/h 17.7 km/h 95 % 0.0 mm
03:57 2.7 °C 2.0 °C 1011.4 hPa WNW 11.3 km/h 19.3 km/h 95 % 0.0 mm
04:02 2.7 °C 2.0 °C 1011.4 hPa WNW 11.3 km/h 19.3 km/h 95 % 0.0 mm
04:07 2.7 °C 2.0 °C 1011.7 hPa NW 6.4 km/h 25.7 km/h 95 % 0.0 mm
04:12 2.7 °C 2.0 °C 1011.7 hPa WNW 9.7 km/h 25.7 km/h 95 % 0.0 mm
04:17 2.7 °C 1.8 °C 1011.7 hPa NNW 6.4 km/h 25.7 km/h 94 % 0.0 mm
04:22 2.7 °C 1.8 °C 1011.7 hPa NNW 1.6 km/h 16.1 km/h 94 % 0.0 mm
04:27 2.7 °C 1.8 °C 1011.7 hPa NW 1.6 km/h 16.1 km/h 94 % 0.0 mm
04:32 2.7 °C 1.8 °C 1011.7 hPa WNW 11.3 km/h 16.1 km/h 94 % 0.0 mm
04:37 2.7 °C 1.8 °C 1011.7 hPa NW 4.8 km/h 12.9 km/h 94 % 0.0 mm
04:42 2.7 °C 1.8 °C 1011.7 hPa NW 1.6 km/h 11.3 km/h 94 % 0.0 mm
04:47 2.7 °C 2.0 °C 1011.7 hPa NW 6.4 km/h 11.3 km/h 95 % 0.0 mm
04:52 2.7 °C 1.8 °C 1011.7 hPa WNW 6.4 km/h 11.3 km/h 94 % 0.0 mm
04:57 2.7 °C 1.8 °C 1011.7 hPa WNW 3.2 km/h 11.3 km/h 94 % 0.0 mm
05:02 2.7 °C 1.8 °C 1011.7 hPa NW 4.8 km/h 11.3 km/h 94 % 0.0 mm
05:12 2.6 °C 1.9 °C 1011.7 hPa WNW 3.2 km/h 11.3 km/h 95 % 0.0 mm
05:17 2.6 °C 1.9 °C 1011.7 hPa WNW 8.0 km/h 9.7 km/h 95 % 0.0 mm
05:22 2.6 °C 1.9 °C 1011.7 hPa WNW 6.4 km/h 11.3 km/h 95 % 0.0 mm
05:27 2.6 °C 1.9 °C 1011.7 hPa WNW 1.6 km/h 12.9 km/h 95 % 0.0 mm
05:32 2.6 °C 1.9 °C 1011.7 hPa WNW 8.0 km/h 12.9 km/h 95 % 0.0 mm
05:37 2.6 °C 1.9 °C 1011.7 hPa WNW 6.4 km/h 14.5 km/h 95 % 0.0 mm
05:42 2.6 °C 1.9 °C 1012.1 hPa WNW 8.0 km/h 14.5 km/h 95 % 0.0 mm
05:47 2.6 °C 1.7 °C 1012.1 hPa West 6.4 km/h 12.9 km/h 94 % 0.0 mm
05:52 2.6 °C 1.7 °C 1012.1 hPa NW 8.0 km/h 12.9 km/h 94 % 0.0 mm
05:57 2.6 °C 1.7 °C 1012.1 hPa West 4.8 km/h 11.3 km/h 94 % 0.0 mm
06:02 2.6 °C 1.7 °C 1012.1 hPa WSW 3.2 km/h 11.3 km/h 94 % 0.0 mm
06:07 2.6 °C 1.7 °C 1012.1 hPa WNW 9.7 km/h 11.3 km/h 94 % 0.0 mm
06:12 2.6 °C 1.7 °C 1012.1 hPa WNW 6.4 km/h 11.3 km/h 94 % 0.0 mm
06:17 2.6 °C 1.7 °C 1012.1 hPa WSW 3.2 km/h 11.3 km/h 94 % 0.0 mm
06:22 2.6 °C 1.7 °C 1012.1 hPa West 4.8 km/h 12.9 km/h 94 % 0.0 mm
06:27 2.7 °C 1.8 °C 1012.1 hPa WNW 4.8 km/h 12.9 km/h 94 % 0.0 mm
06:32 2.7 °C 1.8 °C 1012.1 hPa West 8.0 km/h 14.5 km/h 94 % 0.0 mm
06:42 2.7 °C 1.8 °C 1012.4 hPa SW 4.8 km/h 14.5 km/h 94 % 0.0 mm
06:47 2.7 °C 1.8 °C 1012.4 hPa NW 6.4 km/h 12.9 km/h 94 % 0.0 mm
06:52 2.7 °C 1.8 °C 1012.4 hPa NW 1.6 km/h 12.9 km/h 94 % 0.0 mm
06:57 2.7 °C 1.8 °C 1012.4 hPa West 12.9 km/h 12.9 km/h 94 % 0.0 mm
07:02 2.7 °C 1.8 °C 1012.4 hPa WNW 9.7 km/h 16.1 km/h 94 % 0.0 mm
07:12 2.7 °C 1.8 °C 1012.4 hPa WNW 4.8 km/h 16.1 km/h 94 % 0.0 mm
07:17 2.7 °C 1.8 °C 1012.8 hPa West 4.8 km/h 16.1 km/h 94 % 0.0 mm
07:22 2.7 °C 1.8 °C 1012.4 hPa WNW 3.2 km/h 9.7 km/h 94 % 0.0 mm
07:27 2.7 °C 1.8 °C 1012.8 hPa WNW 4.8 km/h 9.7 km/h 94 % 0.0 mm
07:32 2.7 °C 1.8 °C 1012.8 hPa WSW 3.2 km/h 9.7 km/h 94 % 0.0 mm
07:37 2.7 °C 1.8 °C 1012.8 hPa West 6.4 km/h 9.7 km/h 94 % 0.0 mm
07:42 2.7 °C 1.8 °C 1012.8 hPa WNW 6.4 km/h 9.7 km/h 94 % 0.0 mm
07:47 2.7 °C 1.8 °C 1012.8 hPa WNW 4.8 km/h 9.7 km/h 94 % 0.0 mm
07:52 2.7 °C 1.8 °C 1012.8 hPa West 3.2 km/h 11.3 km/h 94 % 0.0 mm
07:57 2.7 °C 1.8 °C 1012.8 hPa West 4.8 km/h 11.3 km/h 94 % 0.0 mm
08:02 2.8 °C 1.9 °C 1013.1 hPa WNW 4.8 km/h 11.3 km/h 94 % 0.0 mm
08:12 2.8 °C 1.9 °C 1013.1 hPa WNW 1.6 km/h 11.3 km/h 94 % 0.0 mm
08:17 2.8 °C 1.9 °C 1013.4 hPa WNW 9.7 km/h 9.7 km/h 94 % 0.0 mm
08:22 2.8 °C 1.9 °C 1013.4 hPa NW 1.6 km/h 9.7 km/h 94 % 0.0 mm
08:27 2.8 °C 1.9 °C 1013.4 hPa Calm   9.7 km/h 94 % 0.0 mm
08:32 2.8 °C 1.9 °C 1013.4 hPa WNW 3.2 km/h 9.7 km/h 94 % 0.0 mm
08:37 2.8 °C 1.9 °C 1013.4 hPa WNW 3.2 km/h 8.0 km/h 94 % 0.0 mm
08:42 2.8 °C 1.9 °C 1013.4 hPa WNW 4.8 km/h 9.7 km/h 94 % 0.0 mm
08:47 2.8 °C 1.9 °C 1013.4 hPa WNW 4.8 km/h 9.7 km/h 94 % 0.0 mm
08:57 2.8 °C 1.9 °C 1013.8 hPa West 1.6 km/h 11.3 km/h 94 % 0.0 mm
09:02 2.9 °C 2.0 °C 1013.8 hPa NNW 4.8 km/h 11.3 km/h 94 % 0.0 mm
09:12 3.1 °C 2.2 °C 1013.8 hPa West 1.6 km/h 12.9 km/h 94 % 0.0 mm
09:17 3.1 °C 2.2 °C 1013.8 hPa WNW 3.2 km/h 12.9 km/h 94 % 0.0 mm
09:22 3.2 °C 2.3 °C 1013.8 hPa West 3.2 km/h 6.4 km/h 94 % 0.0 mm
09:32 3.3 °C 2.4 °C 1014.1 hPa Calm   6.4 km/h 94 % 0.0 mm
09:37 3.3 °C 2.4 °C 1014.1 hPa WNW 3.2 km/h 4.8 km/h 94 % 0.0 mm
09:42 3.4 °C 2.5 °C 1014.1 hPa WNW 3.2 km/h 4.8 km/h 94 % 0.0 mm
09:47 3.4 °C 2.4 °C 1014.1 hPa West 3.2 km/h 6.4 km/h 93 % 0.0 mm
09:52 3.6 °C 2.6 °C 1014.1 hPa WSW 4.8 km/h 8.0 km/h 93 % 0.0 mm
09:57 3.6 °C 2.6 °C 1014.1 hPa WNW 6.4 km/h 8.0 km/h 93 % 0.0 mm
10:02 3.7 °C 2.7 °C 1014.1 hPa WNW 9.7 km/h 9.7 km/h 93 % 0.0 mm
10:07 3.8 °C 2.8 °C 1014.1 hPa WNW 4.8 km/h 12.9 km/h 93 % 0.0 mm
10:12 3.9 °C 2.9 °C 1014.1 hPa WSW 3.2 km/h 14.5 km/h 93 % 0.0 mm
10:17 4.1 °C 3.1 °C 1014.4 hPa WNW 6.4 km/h 14.5 km/h 93 % 0.0 mm
10:22 4.1 °C 3.1 °C 1014.1 hPa West 8.0 km/h 14.5 km/h 93 % 0.0 mm
10:27 4.1 °C 3.1 °C 1014.4 hPa West 8.0 km/h 12.9 km/h 93 % 0.0 mm
10:32 4.1 °C 3.1 °C 1014.4 hPa West 9.7 km/h 12.9 km/h 93 % 0.0 mm
10:37 4.0 °C 3.0 °C 1014.4 hPa WNW 6.4 km/h 16.1 km/h 93 % 0.0 mm
10:42 4.0 °C 3.1 °C 1014.4 hPa West 6.4 km/h 17.7 km/h 94 % 0.0 mm
10:52 4.1 °C 3.2 °C 1014.4 hPa West 6.4 km/h 17.7 km/h 94 % 0.0 mm
10:57 4.1 °C 3.1 °C 1014.4 hPa WNW 3.2 km/h 16.1 km/h 93 % 0.0 mm
11:02 4.2 °C 3.2 °C 1014.4 hPa WNW 8.0 km/h 14.5 km/h 93 % 0.0 mm
11:07 4.3 °C 3.1 °C 1014.4 hPa WNW 3.2 km/h 14.5 km/h 92 % 0.0 mm
11:12 4.5 °C 3.2 °C 1014.4 hPa WNW 9.7 km/h 14.5 km/h 91 % 0.0 mm
11:17 4.6 °C 3.1 °C 1014.4 hPa West 4.8 km/h 16.1 km/h 90 % 0.0 mm
11:22 4.6 °C 3.1 °C 1014.4 hPa WNW 9.7 km/h 16.1 km/h 90 % 0.0 mm
11:27 4.7 °C 3.0 °C 1014.4 hPa West 4.8 km/h 16.1 km/h 89 % 0.0 mm
11:32 4.8 °C 3.3 °C 1014.4 hPa WNW 3.2 km/h 14.5 km/h 90 % 0.0 mm
11:37 5.0 °C 3.2 °C 1014.4 hPa WNW 9.7 km/h 14.5 km/h 88 % 0.0 mm
11:42 5.2 °C 3.4 °C 1014.4 hPa WSW 11.3 km/h 11.3 km/h 88 % 0.0 mm
11:52 5.6 °C 3.3 °C 1014.4 hPa West 9.7 km/h 17.7 km/h 85 % 0.0 mm
12:02 5.4 °C 3.2 °C 1014.4 hPa NW 6.4 km/h 19.3 km/h 86 % 0.0 mm
12:12 5.3 °C 2.8 °C 1014.4 hPa WNW 6.4 km/h 12.9 km/h 84 % 0.0 mm
12:17 5.5 °C 3.2 °C 1014.4 hPa West 6.4 km/h 11.3 km/h 85 % 0.0 mm
12:22 5.6 °C 3.1 °C 1014.4 hPa West 8.0 km/h 16.1 km/h 84 % 0.0 mm
12:27 5.8 °C 3.5 °C 1014.4 hPa WNW 9.7 km/h 16.1 km/h 85 % 0.0 mm
12:32 5.8 °C 3.3 °C 1014.1 hPa West 9.7 km/h 16.1 km/h 84 % 0.0 mm
12:37 5.8 °C 3.1 °C 1014.1 hPa WNW 12.9 km/h 17.7 km/h 83 % 0.0 mm
12:42 5.8 °C 3.3 °C 1014.1 hPa WNW 9.7 km/h 17.7 km/h 84 % 0.0 mm
12:47 5.8 °C 3.0 °C 1014.1 hPa West 6.4 km/h 17.7 km/h 82 % 0.0 mm
12:52 5.9 °C 3.2 °C 1014.1 hPa NW 3.2 km/h 17.7 km/h 83 % 0.0 mm
12:57 5.9 °C 2.9 °C 1014.1 hPa West 4.8 km/h 12.9 km/h 81 % 0.0 mm
13:02 6.0 °C 3.3 °C 1014.1 hPa SW 3.2 km/h 17.7 km/h 83 % 0.0 mm
13:07 6.1 °C 3.4 °C 1014.1 hPa WNW 14.5 km/h 17.7 km/h 83 % 0.0 mm
13:12 6.3 °C 3.6 °C 1014.1 hPa WNW 9.7 km/h 19.3 km/h 83 % 0.0 mm
13:17 6.4 °C 3.4 °C 1014.1 hPa WNW 9.7 km/h 19.3 km/h 81 % 0.0 mm
13:22 6.4 °C 3.2 °C 1014.1 hPa West 12.9 km/h 19.3 km/h 80 % 0.0 mm
13:27 6.3 °C 2.9 °C 1014.1 hPa WNW 3.2 km/h 16.1 km/h 79 % 0.0 mm
13:32 6.3 °C 3.1 °C 1014.1 hPa WNW 9.7 km/h 16.1 km/h 80 % 0.0 mm
13:37 6.3 °C 3.1 °C 1014.1 hPa NW 6.4 km/h 14.5 km/h 80 % 0.0 mm
13:47 6.3 °C 3.1 °C 1014.1 hPa West 3.2 km/h 11.3 km/h 80 % 0.0 mm
13:52 6.6 °C 3.0 °C 1014.1 hPa West 4.8 km/h 12.9 km/h 78 % 0.0 mm
13:57 6.6 °C 3.0 °C 1014.1 hPa West 17.7 km/h 17.7 km/h 78 % 0.0 mm
14:02 5.4 °C 2.4 °C 1014.4 hPa WSW 11.3 km/h 33.8 km/h 81 % 0.0 mm
14:07 4.7 °C 2.2 °C 1014.1 hPa West 4.8 km/h 33.8 km/h 84 % 0.3 mm
14:12 4.7 °C 2.6 °C 1013.8 hPa SW 3.2 km/h 33.8 km/h 86 % 0.5 mm
14:17 4.8 °C 2.8 °C 1013.8 hPa SW 3.2 km/h 22.5 km/h 87 % 0.5 mm
14:22 5.1 °C 3.1 °C 1013.8 hPa SSW 1.6 km/h 9.7 km/h 87 % 0.5 mm
14:27 5.3 °C 3.3 °C 1013.8 hPa SW 1.6 km/h 6.4 km/h 87 % 0.5 mm
14:32 5.4 °C 3.2 °C 1013.8 hPa WSW 4.8 km/h 6.4 km/h 86 % 0.5 mm
14:37 5.4 °C 3.2 °C 1013.8 hPa West 1.6 km/h 6.4 km/h 86 % 0.5 mm
14:47 5.6 °C 3.6 °C 1013.8 hPa Calm   4.8 km/h 87 % 0.5 mm
14:52 5.6 °C 3.3 °C 1013.8 hPa West 3.2 km/h 4.8 km/h 85 % 0.5 mm
14:57 5.1 °C 2.5 °C 1013.8 hPa WNW 8.0 km/h 9.7 km/h 83 % 0.5 mm
15:02 4.6 °C 2.8 °C 1013.8 hPa WNW 1.6 km/h 17.7 km/h 88 % 0.8 mm
15:07 4.4 °C 2.7 °C 1014.1 hPa Calm   17.7 km/h 89 % 0.8 mm
15:12 4.3 °C 2.6 °C 1013.8 hPa Calm   17.7 km/h 89 % 0.8 mm
15:17 4.3 °C 2.8 °C 1013.8 hPa Calm   11.3 km/h 90 % 0.8 mm
15:22 4.3 °C 2.8 °C 1013.8 hPa WNW 1.6 km/h 4.8 km/h 90 % 0.8 mm
15:32 4.9 °C 3.1 °C 1013.8 hPa Calm   6.4 km/h 88 % 0.8 mm
15:37 5.0 °C 3.3 °C 1014.1 hPa NW 8.0 km/h 8.0 km/h 89 % 0.8 mm
15:42 4.9 °C 3.2 °C 1014.4 hPa NW 3.2 km/h 14.5 km/h 89 % 0.8 mm
15:47 4.2 °C 2.5 °C 1014.1 hPa WNW 8.0 km/h 17.7 km/h 89 % 1.0 mm
15:52 3.7 °C 2.4 °C 1014.1 hPa Calm   17.7 km/h 91 % 1.3 mm
15:57 3.5 °C 2.3 °C 1013.8 hPa NNW 6.4 km/h 17.7 km/h 92 % 0.8 mm
16:02 3.4 °C 2.2 °C 1013.8 hPa West 1.6 km/h 14.5 km/h 92 % 0.5 mm
16:07 3.4 °C 2.2 °C 1013.8 hPa Calm   8.0 km/h 92 % 0.5 mm
16:12 3.5 °C 2.3 °C 1013.8 hPa Calm   6.4 km/h 92 % 0.5 mm
16:17 3.6 °C 2.4 °C 1013.8 hPa Calm   1.6 km/h 92 % 0.5 mm
16:22 3.6 °C 2.4 °C 1013.8 hPa Calm     92 % 0.5 mm
16:27 3.8 °C 2.8 °C 1013.8 hPa Calm   1.6 km/h 93 % 0.5 mm
16:32 3.9 °C 2.7 °C 1013.8 hPa Calm   1.6 km/h 92 % 0.5 mm
16:37 4.0 °C 2.8 °C 1013.8 hPa SSE 1.6 km/h 1.6 km/h 92 % 0.5 mm
16:42 4.2 °C 3.0 °C 1014.1 hPa SSE 3.2 km/h 3.2 km/h 92 % 0.5 mm
16:47 4.1 °C 2.8 °C 1013.8 hPa Calm   4.8 km/h 91 % 0.0 mm
16:57 3.8 °C 2.6 °C 1014.1 hPa Calm   4.8 km/h 92 % 0.0 mm
17:02 3.7 °C 2.5 °C 1014.1 hPa Calm   3.2 km/h 92 % 0.0 mm
17:07 3.6 °C 2.4 °C 1014.1 hPa Calm   3.2 km/h 92 % 0.0 mm
17:12 3.5 °C 2.3 °C 1014.1 hPa South 1.6 km/h 3.2 km/h 92 % 0.0 mm
17:17 3.5 °C 2.3 °C 1014.1 hPa Calm   3.2 km/h 92 % 0.0 mm
17:22 3.5 °C 2.5 °C 1014.1 hPa Calm   3.2 km/h 93 % 0.0 mm
17:27 3.4 °C 2.4 °C 1014.1 hPa Calm   1.6 km/h 93 % 0.0 mm
17:32 3.4 °C 2.4 °C 1014.1 hPa Calm   1.6 km/h 93 % 0.0 mm
17:37 3.3 °C 2.3 °C 1014.1 hPa Calm   1.6 km/h 93 % 0.0 mm
17:42 3.3 °C 2.3 °C 1014.1 hPa Calm     93 % 0.0 mm
17:47 3.2 °C 2.2 °C 1014.1 hPa Calm     93 % 0.0 mm
17:52 3.1 °C 2.1 °C 1014.1 hPa Calm     93 % 0.0 mm
17:57 3.0 °C 2.1 °C 1014.1 hPa Calm   1.6 km/h 94 % 0.0 mm
18:02 3.0 °C 2.1 °C 1014.1 hPa Calm   1.6 km/h 94 % 0.0 mm
18:12 2.9 °C 2.0 °C 1014.1 hPa Calm     94 % 0.0 mm
18:17 3.0 °C 2.3 °C 1014.1 hPa Calm     95 % 0.0 mm
18:22 3.0 °C 2.3 °C 1014.1 hPa Calm     95 % 0.0 mm
18:27 2.9 °C 2.2 °C 1014.1 hPa Calm     95 % 0.0 mm
18:32 2.9 °C 2.2 °C 1013.8 hPa Calm     95 % 0.0 mm
18:37 2.8 °C 2.1 °C 1014.1 hPa Calm     95 % 0.0 mm
18:42 2.8 °C 2.1 °C 1013.8 hPa Calm     95 % 0.0 mm
18:52 2.7 °C 2.0 °C 1013.8 hPa Calm     95 % 0.0 mm
18:57 2.6 °C 1.9 °C 1013.8 hPa Calm     95 % 0.0 mm
19:02 2.6 °C 1.9 °C 1013.8 hPa ESE 1.6 km/h   95 % 0.3 mm
19:07 2.7 °C 2.0 °C 1013.4 hPa South 1.6 km/h 3.2 km/h 95 % 0.3 mm
19:12 2.6 °C 1.9 °C 1013.8 hPa Calm   3.2 km/h 95 % 0.3 mm
19:22 2.7 °C 2.1 °C 1013.8 hPa SSW 1.6 km/h 3.2 km/h 96 % 0.3 mm
19:27 2.8 °C 2.2 °C 1013.8 hPa SSW 1.6 km/h 3.2 km/h 96 % 0.3 mm
19:37 2.9 °C 2.3 °C 1013.8 hPa Calm   3.2 km/h 96 % 0.3 mm
19:42 2.9 °C 2.3 °C 1013.8 hPa Calm   1.6 km/h 96 % 0.3 mm
19:47 2.8 °C 2.2 °C 1013.8 hPa Calm   1.6 km/h 96 % 0.3 mm
19:52 2.8 °C 2.2 °C 1013.8 hPa South 1.6 km/h 3.2 km/h 96 % 0.3 mm
19:57 2.8 °C 2.2 °C 1013.4 hPa SSW 1.6 km/h 3.2 km/h 96 % 0.3 mm
20:02 2.8 °C 2.2 °C 1013.8 hPa SSW 1.6 km/h 3.2 km/h 96 % 0.0 mm
20:07 2.8 °C 2.2 °C 1013.8 hPa Calm   3.2 km/h 96 % 0.0 mm
20:17 2.9 °C 2.3 °C 1013.8 hPa Calm   3.2 km/h 96 % 0.0 mm
20:22 2.9 °C 2.3 °C 1013.8 hPa Calm   1.6 km/h 96 % 0.0 mm
20:27 2.9 °C 2.3 °C 1013.8 hPa Calm     96 % 0.0 mm
20:32 3.0 °C 2.4 °C 1013.8 hPa Calm     96 % 0.0 mm
20:42 3.1 °C 2.5 °C 1013.4 hPa Calm     96 % 0.0 mm
20:47 3.1 °C 2.5 °C 1013.4 hPa Calm     96 % 0.0 mm
20:52 3.2 °C 2.6 °C 1013.4 hPa Calm     96 % 0.0 mm
20:57 3.2 °C 2.6 °C 1013.4 hPa Calm     96 % 0.0 mm
21:02 3.2 °C 2.6 °C 1013.4 hPa Calm     96 % 0.0 mm
21:12 3.3 °C 2.7 °C 1013.4 hPa Calm     96 % 0.0 mm
21:17 3.3 °C 2.7 °C 1013.4 hPa Calm     96 % 0.0 mm
21:22 3.3 °C 2.7 °C 1013.4 hPa Calm     96 % 0.0 mm
21:27 3.3 °C 2.7 °C 1013.4 hPa Calm     96 % 0.0 mm
21:32 3.3 °C 2.7 °C 1013.1 hPa Calm     96 % 0.0 mm
21:37 3.3 °C 2.7 °C 1013.1 hPa Calm     96 % 0.0 mm
21:47 3.3 °C 2.7 °C 1012.8 hPa Calm     96 % 0.0 mm
21:52 3.3 °C 2.7 °C 1012.8 hPa Calm   3.2 km/h 96 % 0.0 mm
22:02 3.3 °C 2.7 °C 1012.8 hPa Calm   3.2 km/h 96 % 0.0 mm
22:12 3.2 °C 2.6 °C 1012.8 hPa Calm   1.6 km/h 96 % 0.0 mm
22:22 3.2 °C 2.6 °C 1012.8 hPa Calm     96 % 0.0 mm
22:27 3.1 °C 2.5 °C 1012.8 hPa Calm     96 % 0.0 mm
22:37 3.2 °C 2.6 °C 1012.4 hPa Calm     96 % 0.0 mm
22:42 3.2 °C 2.6 °C 1012.4 hPa Calm   1.6 km/h 96 % 0.0 mm
22:47 3.2 °C 2.6 °C 1012.4 hPa Calm   3.2 km/h 96 % 0.0 mm
22:52 3.2 °C 2.6 °C 1012.1 hPa Calm   3.2 km/h 96 % 0.0 mm
22:57 3.2 °C 2.6 °C 1012.1 hPa Calm   1.6 km/h 96 % 0.0 mm
23:02 3.2 °C 2.6 °C 1012.1 hPa Calm   3.2 km/h 96 % 0.0 mm
23:07 3.2 °C 2.6 °C 1011.7 hPa Calm   3.2 km/h 96 % 0.0 mm
23:12 3.2 °C 2.6 °C 1011.7 hPa Calm   4.8 km/h 96 % 0.0 mm
23:17 3.1 °C 2.5 °C 1011.7 hPa South 1.6 km/h 4.8 km/h 96 % 0.0 mm
23:22 3.1 °C 2.5 °C 1011.7 hPa South 3.2 km/h 4.8 km/h 96 % 0.0 mm
23:27 3.1 °C 2.5 °C 1011.7 hPa SSW 1.6 km/h 4.8 km/h 96 % 0.0 mm
23:32 3.1 °C 2.5 °C 1011.4 hPa SSW 3.2 km/h 4.8 km/h 96 % 0.0 mm
23:37 3.1 °C 2.5 °C 1011.4 hPa SSW 3.2 km/h 6.4 km/h 96 % 0.0 mm
23:42 3.2 °C 2.6 °C 1011.4 hPa South 1.6 km/h 6.4 km/h 96 % 0.0 mm
23:47 3.2 °C 2.6 °C 1011.4 hPa SSW 1.6 km/h 6.4 km/h 96 % 0.0 mm
23:57 3.3 °C 2.7 °C 1011.4 hPa Calm   4.8 km/h 96 % 0.0 mm
Meteo18
Compliments of Weather Underground - 4 mb

Script developed by  Jim McMurry - jmcmurry@mwt.net Adapted for the template by  Wim van der Kuil - Leuven-Template.eu

You find our weather info also at:

European Weather Network

Weather Underground

Equipment we use:

Weather-station
Davis Vue

Weather-program
Meteohub

Weather-server
Raspberry PI 2 B+

Provider
1 and 1

Davis Vue

Meteohub

Raspberry PI 2 B+

1 and 1